STARLINK-32838, 62827

Orbit data source: Space-Track

STARLINK-32838, 62827 is a payload satellite owned by SpaceX/Seattle (US) in LEO that was launched on Fri, 24 Jan 2025 UTC via an FALCON 9 launch vehicle from the Air Force Western Test Range (AFWTR). Payloads include a variety of satellites, spacecraft, and rockets equipped with specific instruments for various scientific and technological missions. These include communications satellites like Starlink; space stations such as the ISS; scientific satellites like the Hubble; Earth observation satellites from companies like Planet Labs, Umbra, and HawkEye 360; GPS; miniature CubeSats for education and research; and military/defense satellites.

Not visible in the next 10 days
STARLINK-32838 details
Identifier
62827, 2025-018X
Orbit
LEO
Last TLE update1 day ago
Origin
Flag of USSpaceX/Seattle (US)
ManufacturerSpaceX/Seattle
MissionOperational spacecraft
Bus & MotorSTARLINK V2M, Unknown motor
Mass730 kg wet, ~700 kg dry
Launch date (UTC)
2025-01-24 (3 weeks ago)
Launch vehicle
FALCON 9
Launch site
Air Force Western Test Range (AFWTR)
Object type
Payload
Rocket body
Debris
Shape & HBRUnknown
Radar Cross SectionLarge (>1 m²)

Expand to show TLE details & history

TLE from 1 day ago
0 STARLINK-32838
1 62827U 25018X   25046.15516017  .06629476  84588-1  20000-1 0  9991
2 62827  53.1467 315.3258 0000628 108.6824 251.0592 15.97375897  4453
Epoch: 2025-02-15T03:43Z
Definitive object data (Epoch: 2025-02-15T03:43:25.838Z)
Latitude-0.2965°
Longitude113.84053°
Altitude282.801 km
Speed7.739 km/s
True Right ascension21h 00m 25s
True Declination0° 17' 41"
Sunlit
Object was in daylight at TLE epoch
Visualization TLE readout
Latitude-53.28004°
Longitude14.52902°
Altitude92.449 km
Speed7.85 km/s
Apparent Right ascension03h 33m 44s
Apparent Declination-83° 26' 44"
Sunlit
Object is in daylight
Visualization observer readout
Local Sidereal Time14:38:13
Azimuth182.27° SSW
Elevation-46.258°
Doppler factor1
Orbital elements
Apogee altitude282.387 km
Perigee altitude281.55 km
Semi-major axis6,660.105 km
Eccentricity0.0000628
Inclination53.1467°
RAAN315.3258°
Arg. of periapsis108.6824°
True anomaly251.05239°
Mean anomaly251.0592°
Eccentric anomaly251.0558°
Mean motion3.9932 °/min
BSTAR0.02
Orbital period90.15 mins
Loading maneuver chart data...
Loading historical data...
Loading historical data...
Loading historical data...
Loading historical data...
Loading historical data...
Loading historical data...
Loading historical data...

STARLINK-32838 Visibility forecast

Observer location: undefined°, undefined

STARLINK-32838 is not visible in the next 10 days
Span
Click to sort rows by Start time (UTC) header in descending order
Start Az.
Max El. time (UTC)
Max El. Az.
Max El.
End time (UTC)
End Az.
|